Theta_e
300 300 297 298 296 294 294 294 294 294 294 294 295 295 294 294 294 294 294 294 294 294 293 293 293 293 293 293 293 293 293 293 294 294 294 294 295 297 303 307 310 314 316 318 320 321 322 322 321 321 321 322 321 321 322 321 321 321 321 321 323 323 321 321 321 321 321 322 323 323 323 323 324 324 324 324 324 325 327 328 328 329 330 331 331
299 297 296 296 294 293 293 293 293 293 294 294 294 294 294 293 293 294 294 294 294 294 293 293 292 292 292 292 292 292 293 293 293 293 294 294 294 295 299 304 308 312 314 317 318 319 320 320 319 319 320 321 321 321 321 320 321 320 319 320 321 320 320 319 319 320 320 320 321 322 322 323 323 323 324 324 324 325 326 327 328 329 330 331 331
298 296 296 295 293 293 292 292 293 293 293 293 293 294 293 293 294 293 293 293 294 293 292 292 292 292 292 292 292 292 293 293 293 293 293 293 294 295 297 299 305 308 312 314 316 317 318 318 319 319 320 320 320 320 320 320 319 319 318 320 320 319 319 318 318 318 319 320 320 321 321 322 321 321 321 322 322 323 324 324 326 327 327 328 330
297 295 295 294 293 292 292 292 292 292 293 293 293 293 293 292 292 292 292 293 292 292 291 291 291 291 292 291 292 292 292 293 293 293 293 293 294 294 296 297 300 304 309 313 314 314 314 314 316 317 317 318 319 319 320 319 319 318 318 319 319 318 318 317 317 318 318 319 320 320 321 320 319 319 319 320 320 321 323 323 324 325 326 327 327
296 295 295 294 293 292 291 292 292 292 292 293 293 293 293 292 292 292 291 291 291 291 291 290 291 291 291 291 292 292 292 293 293 293 293 293 293 294 295 296 297 297 302 307 310 311 310 311 313 315 316 316 317 317 317 317 317 317 316 317 318 317 317 316 317 317 317 317 318 319 319 318 318 318 318 318 319 320 321 322 322 323 323 323 324
296 295 295 293 292 292 292 291 291 291 292 292 292 292 292 292 291 291 291 291 291 291 290 291 290 290 291 291 292 292 292 292 292 292 292 293 293 294 294 295 295 295 297 300 304 306 308 309 311 313 314 315 315 315 316 315 316 316 316 315 315 316 316 316 317 317 316 316 316 316 317 317 317 317 317 318 319 319 319 319 320 320 321 322 322
295 295 294 293 292 291 291 290 291 291 291 291 291 291 292 291 291 291 291 290 291 291 291 291 291 290 291 291 291 291 292 292 292 292 292 292 293 293 294 294 294 294 295 295 298 301 303 305 308 310 311 311 312 313 313 315 316 316 316 316 315 315 315 317 316 316 316 315 315 316 316 316 316 316 317 318 318 318 318 318 318 319 319 320 321
294 295 293 293 292 291 290 290 290 291 290 290 291 290 291 291 291 290 289 290 290 291 291 291 291 290 290 290 291 291 291 292 292 291 291 292 292 292 293 293 294 294 293 293 294 296 299 300 303 306 307 308 309 310 313 315 316 315 315 315 315 315 315 315 315 315 315 315 315 316 316 315 316 316 316 317 317 317 317 318 318 318 318 319 319
294 294 294 293 292 291 289 289 290 290 290 290 291 290 290 290 290 289 290 291 291 291 290 290 290 289 290 290 290 291 291 292 291 291 292 292 291 291 292 292 292 291 292 292 292 293 294 297 298 301 303 304 306 308 310 314 315 315 314 314 315 315 314 313 313 314 314 314 314 314 314 314 315 315 316 316 317 317 316 317 317 317 317 318 319
294 294 294 293 292 291 289 289 290 289 289 290 290 290 290 290 289 289 288 290 290 291 290 290 290 289 289 289 290 290 291 291 291 291 292 291 291 291 291 291 291 291 291 291 291 291 292 292 293 295 297 301 303 305 308 310 313 314 314 314 314 314 314 313 313 313 313 313 313 314 314 314 314 314 315 315 315 315 315 316 316 316 316 317 317
294 293 293 292 292 290 289 289 289 289 289 289 289 289 289 289 289 288 288 288 290 290 290 290 289 289 288 288 289 290 290 290 290 290 290 291 291 290 291 290 290 290 290 290 290 291 291 291 291 292 293 297 301 303 305 308 309 312 314 313 313 313 313 314 313 313 313 312 312 312 313 313 313 314 313 314 314 314 315 315 315 315 315 316 316
293 293 293 292 291 290 289 289 289 289 289 288 288 288 288 288 288 289 289 289 288 289 289 289 288 288 288 288 289 290 290 289 289 289 289 290 290 290 289 289 289 289 289 289 290 290 290 290 291 291 291 293 295 298 299 302 306 309 311 313 313 313 312 313 312 311 311 311 311 311 312 312 312 312 313 313 313 314 314 314 315 314 315 315 316
293 293 293 292 291 290 289 288 289 289 289 289 289 289 289 288 288 289 289 289 289 287 288 290 289 286 288 288 288 289 290 289 288 289 289 289 289 289 289 289 289 289 289 289 289 289 289 290 290 290 290 292 291 292 294 296 301 307 309 310 312 312 312 312 310 309 310 309 310 310 310 310 311 311 311 311 311 312 312 313 313 314 314 315 315
293 293 292 292 290 289 289 288 288 288 289 289 288 289 288 287 288 288 287 289 289 288 287 289 290 289 286 286 287 289 290 288 288 288 289 289 288 289 289 289 289 289 289 288 288 288 289 289 289 290 290 290 291 291 292 294 296 303 305 306 308 310 310 309 310 309 309 309 309 309 309 309 309 309 309 309 310 310 310 311 312 312 313 313 314
293 292 292 291 290 290 289 288 288 288 287 287 287 287 287 287 288 288 286 288 288 287 287 288 291 289 290 288 285 286 288 287 288 287 288 288 288 288 288 288 288 288 288 288 288 288 288 289 289 289 289 290 290 290 291 293 294 296 299 301 303 305 308 309 310 308 308 307 307 308 308 307 307 308 308 308 308 309 310 310 311 311 311 312 312
292 292 292 291 291 290 289 288 288 288 288 287 287 287 287 286 287 288 289 287 287 287 288 286 287 290 288 289 285 287 285 286 287 287 287 287 288 287 288 287 288 288 289 287 287 287 288 288 288 289 289 289 290 290 291 292 293 294 295 295 297 302 304 306 308 308 307 307 308 306 306 307 307 308 308 308 309 309 309 309 310 310 310 311 311
292 292 292 291 291 290 289 289 288 288 288 287 287 287 287 287 287 287 288 290 286 288 286 286 286 284 291 285 285 286 288 287 285 285 286 286 286 287 288 287 287 287 287 287 288 287 287 288 288 289 289 289 290 290 291 292 293 294 293 294 295 298 300 302 305 306 305 306 306 305 305 306 306 306 307 307 307 308 308 309 309 310 310 311 311
292 292 292 291 291 290 290 289 288 287 287 287 287 287 287 286 287 287 287 289 289 287 286 286 285 287 287 287 293 296 289 285 286 285 284 286 285 286 286 286 286 286 287 287 287 287 287 287 288 288 288 289 289 290 291 292 292 293 292 293 295 296 297 299 301 302 303 304 304 305 305 305 305 304 305 305 306 306 307 308 308 309 309 309 310
291 291 292 292 291 290 290 289 288 287 287 287 286 287 287 287 287 286 288 287 288 288 287 286 286 286 286 287 286 284 289 287 286 285 283 285 285 284 285 286 285 286 286 286 286 287 287 287 287 288 288 289 289 290 290 290 290 291 291 291 293 294 295 295 297 299 301 301 302 302 303 303 303 303 303 304 304 305 306 306 307 308 308 308 308
291 291 291 291 290 290 289 289 288 288 287 286 287 287 287 287 287 287 287 287 287 289 287 286 288 285 286 286 285 285 285 287 289 290 289 285 283 283 284 285 285 285 286 285 286 286 286 287 287 288 288 288 289 290 290 290 290 290 290 291 291 292 293 295 295 295 296 298 300 301 301 301 302 302 303 303 303 304 305 305 306 306 307 307 307
291 290 290 290 290 289 289 288 288 287 287 287 287 287 287 286 286 285 285 285 286 287 287 286 287 286 284 283 285 285 284 285 285 287 287 287 285 284 284 284 284 285 285 285 286 286 286 286 286 287 288 288 289 289 289 290 289 289 289 289 290 291 293 294 294 294 294 294 295 297 298 299 300 301 301 302 302 302 303 305 305 305 305 306 306
289 290 290 290 290 289 289 288 288 287 287 287 287 286 286 286 286 286 286 286 285 286 287 287 287 287 287 287 286 284 286 285 285 283 284 287 287 285 285 284 283 284 284 284 285 285 286 286 286 287 287 287 287 287 288 289 289 289 287 288 288 289 291 292 292 293 293 292 293 293 294 295 297 299 300 301 302 303 303 304 304 304 304 305 306
289 289 289 289 289 289 288 288 288 287 287 287 286 286 286 286 286 286 286 286 285 285 287 286 286 286 286 287 287 287 287 286 285 285 287 284 282 283 282 283 284 283 283 284 284 285 285 286 286 286 287 286 286 286 286 287 287 287 285 286 287 288 289 290 290 291 292 292 292 292 293 293 293 295 298 299 301 302 303 303 303 303 304 304 305
288 288 288 288 289 288 288 288 287 287 287 287 286 286 286 286 286 285 285 286 285 284 285 284 284 285 285 286 287 288 287 288 287 287 286 286 286 286 284 282 281 282 283 283 284 284 285 285 285 286 286 286 286 285 285 285 286 285 285 283 285 286 287 288 290 291 291 290 291 291 291 292 292 293 294 296 298 300 300 301 302 302 303 303 303
287 287 288 288 288 287 287 287 287 287 287 287 286 286 286 285 285 285 285 285 284 284 283 284 284 284 284 285 285 285 285 285 286 286 286 286 286 284 283 282 282 281 281 282 283 284 285 284 285 286 285 285 285 285 284 284 285 285 284 282 282 284 285 286 288 289 290 290 290 290 290 290 292 292 293 295 296 297 298 299 300 301 302 302 302
287 287 288 288 288 288 288 287 288 287 287 287 286 286 285 285 285 285 285 285 284 283 283 283 283 284 285 283 283 284 284 284 285 285 284 284 283 284 282 281 280 281 281 281 282 282 283 284 284 285 285 284 284 283 283 283 283 283 282 281 281 281 283 284 287 288 289 289 289 290 290 290 290 292 293 294 295 295 296 297 299 300 300 301 301
289 289 289 288 288 288 288 287 287 287 287 286 286 285 285 285 285 285 284 285 284 283 283 282 282 282 283 284 283 283 283 283 284 285 285 287 286 284 283 280 279 279 280 281 281 281 282 283 284 284 283 283 283 283 282 282 282 282 281 281 281 280 281 283 286 288 288 288 288 289 289 289 290 291 292 293 294 294 295 296 297 297 298 298 299
290 289 289 288 287 287 287 287 287 287 286 286 285 284 284 284 284 284 283 284 283 283 283 282 282 283 283 283 283 283 283 283 284 284 284 285 285 285 285 284 282 280 280 279 280 280 282 281 282 283 283 282 282 282 281 280 282 281 280 280 280 280 280 283 285 286 287 287 288 288 288 289 290 291 291 291 292 292 293 295 294 295 295 295 296
289 289 288 288 287 287 287 286 286 286 286 285 285 284 284 283 283 283 283 283 283 283 283 282 283 283 283 282 283 283 282 282 283 283 283 283 284 284 285 285 284 282 281 279 280 280 281 282 281 282 282 281 281 282 280 280 280 281 281 280 279 279 280 283 284 285 286 286 287 287 288 288 289 290 290 291 291 291 292 293 292 293 293 293 293
289 288 288 287 287 286 286 286 285 285 285 285 284 284 283 283 283 283 284 283 283 283 283 283 282 282 282 282 283 283 282 282 283 283 283 283 283 283 283 283 284 282 283 281 280 281 282 281 282 281 280 280 280 280 280 279 279 280 280 279 279 279 280 281 282 283 284 285 286 287 288 288 289 289 289 290 290 291 292 292 292 292 292 293 294
288 287 287 286 286 286 286 285 285 284 284 284 284 283 283 283 283 283 283 283 283 282 282 282 282 282 281 281 282 282 282 282 282 282 282 282 283 283 283 283 282 283 283 282 279 281 282 280 281 280 280 279 280 279 280 279 279 279 279 279 279 279 279 279 280 282 283 284 285 286 287 288 288 289 289 289 290 290 291 291 291 291 291 292 293
287 287 287 286 286 285 285 285 284 284 284 284 283 283 283 283 283 282 282 282 282 282 281 282 281 281 281 281 281 281 281 281 281 281 282 282 282 282 282 282 282 282 282 281 280 279 280 281 281 280 279 279 279 279 278 278 279 278 278 278 278 278 279 279 279 281 282 283 285 286 287 288 288 288 288 288 289 290 290 290 290 290 291 292 293
286 286 286 286 286 285 285 285 284 283 283 283 283 283 282 282 282 282 282 281 281 282 281 281 281 281 281 281 281 281 281 281 281 281 281 281 281 282 282 281 281 281 280 280 279 278 278 280 280 280 279 279 278 278 277 278 277 278 278 278 278 278 279 279 279 280 281 283 284 285 287 287 287 287 288 288 288 288 289 289 289 289 291 292 291
286 286 286 286 286 285 285 284 284 284 283 283 283 283 282 282 281 282 281 281 281 281 281 280 280 280 281 280 280 280 280 280 280 280 281 280 280 280 280 280 280 280 281 279 280 279 277 277 277 278 278 278 277 278 276 276 277 277 277 278 278 279 279 279 279 280 281 282 284 285 286 286 286 286 287 287 287 288 288 289 289 289 290 291 290
286 286 286 286 285 285 285 285 284 283 283 283 283 282 282 282 281 281 281 281 281 281 280 280 280 280 280 280 280 280 280 279 280 280 280 280 280 280 280 280 280 280 280 280 279 278 278 277 277 276 277 277 276 276 276 277 276 277 276 277 278 279 279 279 279 280 281 282 284 285 285 285 285 286 286 286 287 287 287 288 288 288 289 289 289
285 286 286 286 285 285 285 285 284 284 283 283 282 282 282 282 281 281 281 281 281 281 280 280 280 279 279 279 279 279 279 279 279 279 279 280 279 279 279 279 279 279 279 279 279 279 278 276 275 275 276 275 276 276 276 276 276 276 277 277 279 278 279 280 279 279 280 282 283 283 284 284 284 285 285 286 286 286 287 287 288 288 288 288 288
285 285 285 285 285 285 284 284 284 283 283 283 282 282 282 282 282 281 281 280 281 281 281 280 280 279 279 279 279 279 279 278 278 278 278 278 278 279 278 278 278 278 278 278 278 278 276 276 275 275 275 275 275 275 276 275 276 277 277 277 278 278 278 279 280 280 280 282 282 282 282 283 283 284 284 285 285 286 286 287 287 287 287 286 286
285 285 285 285 284 284 284 285 284 284 284 283 283 282 282 282 282 282 281 281 281 281 281 281 280 280 280 280 279 279 279 278 278 277 277 277 277 277 277 277 277 277 277 276 276 276 275 275 274 273 274 273 274 275 276 275 275 275 276 277 278 278 278 278 279 280 280 280 280 281 281 282 282 283 283 284 284 285 285 286 286 286 285 284 284
285 284 284 284 285 285 284 284 284 284 284 283 283 283 282 282 282 281 281 281 281 281 281 281 280 280 280 280 279 279 278 279 278 277 277 277 276 275 276 275 276 275 275 275 275 274 274 273 273 273 273 274 274 273 276 276 276 276 275 275 276 278 278 278 277 279 280 280 281 281 281 281 282 282 282 282 283 283 284 284 284 284 283 283 283
285 285 284 284 284 284 284 284 285 285 284 284 283 283 282 282 282 281 281 281 280 280 281 281 280 280 280 280 280 279 279 280 279 278 277 276 276 275 275 275 275 274 274 273 273 273 273 272 272 272 273 273 274 275 276 276 275 275 276 275 274 275 277 278 278 278 279 280 279 280 280 281 281 281 281 281 281 281 282 282 282 282 281 282 283
285 285 285 285 284 284 284 284 284 284 284 283 283 283 282 282 282 281 281 281 281 280 280 280 280 280 280 280 280 279 279 280 280 279 279 278 275 274 274 274 273 273 272 272 272 272 271 271 271 273 272 273 273 274 274 274 274 275 276 276 275 276 277 277 278 279 279 278 279 279 279 279 278 278 278 279 279 280 280 280 280 280 281 283 284
285 285 285 284 284 284 284 284 284 283 283 284 284 285 285 283 282 282 281 281 281 281 280 279 279 279 279 279 279 280 280 280 280 280 280 280 279 276 274 273 273 272 271 270 271 271 271 270 271 272 271 271 273 274 274 275 276 276 275 275 274 276 277 276 277 278 280 279 278 276 277 278 277 277 278 277 278 279 279 279 279 280 281 283 283
285 285 284 284 284 284 284 284 283 283 283 284 286 287 287 286 283 282 281 281 281 280 280 280 279 279 279 279 279 280 280 280 280 281 281 281 279 278 278 277 276 272 270 270 270 270 270 270 271 272 272 272 273 274 275 276 276 275 275 276 276 276 275 274 273 277 280 278 276 273 274 276 276 275 276 277 277 278 278 277 279 280 281 282 283
284 284 284 283 284 284 284 284 284 283 283 285 286 287 287 287 285 282 282 281 280 280 280 280 279 279 278 278 278 278 279 279 279 279 280 281 280 279 278 278 278 277 276 272 270 270 270 270 271 271 272 273 274 275 275 275 275 276 276 276 276 275 275 274 274 274 279 278 274 272 272 275 276 275 275 275 276 277 277 278 279 280 281 282 283
284 283 283 283 283 283 283 283 283 283 283 286 287 287 287 287 287 284 281 281 280 280 280 279 279 279 278 277 277 277 278 279 279 279 279 278 280 279 279 278 278 278 277 277 276 273 273 272 271 272 273 274 274 275 276 275 277 275 276 275 276 276 276 275 274 275 276 276 273 272 271 274 275 274 273 275 276 276 276 277 278 280 281 281 282
283 283 283 283 283 283 283 283 283 283 283 285 287 287 287 287 288 286 281 281 280 280 279 279 279 278 277 277 276 276 277 278 278 278 278 278 278 277 277 276 276 277 278 278 277 276 276 274 274 273 275 276 275 277 277 277 276 275 275 275 276 275 274 274 274 274 274 275 272 271 270 273 274 273 273 274 276 276 276 277 278 280 280 281 281
282 282 282 282 283 283 283 283 283 283 283 286 286 287 287 288 288 287 282 281 280 280 279 279 279 278 277 277 276 276 277 277 277 278 277 277 277 276 276 275 275 276 276 276 276 276 276 276 276 276 277 278 277 277 277 278 277 277 277 277 276 274 274 273 272 272 272 274 273 271 267 271 273 272 273 274 275 274 275 276 277 278 279 280 280
282 282 282 282 282 282 283 282 282 282 283 286 286 287 287 288 288 286 283 281 280 279 279 279 279 278 277 277 276 276 276 276 278 280 279 277 276 275 274 274 274 275 276 278 279 279 278 277 277 278 278 278 278 277 278 278 278 279 277 275 273 270 269 268 268 269 269 273 273 271 268 269 273 271 272 273 274 273 274 275 276 277 278 279 280
280 281 281 281 282 282 282 282 281 282 282 284 286 286 287 288 287 285 283 281 280 279 278 278 277 277 276 276 276 276 276 276 279 281 281 279 275 274 273 273 273 274 275 278 280 281 281 281 280 280 280 279 280 281 281 281 280 277 273 272 269 269 267 266 267 268 268 271 271 272 270 268 271 271 270 272 272 272 272 274 275 276 277 278 279
279 280 280 280 281 281 281 281 282 281 282 283 285 286 287 287 287 285 283 281 279 278 278 277 277 276 276 278 277 275 275 276 281 282 282 279 275 274 274 273 273 273 274 277 277 279 281 281 280 280 279 280 281 281 281 280 279 276 272 269 269 268 267 266 265 267 267 269 271 272 269 269 270 270 269 270 270 271 272 273 274 274 275 275 276
278 279 279 279 279 280 281 281 282 281 281 282 284 285 286 287 287 285 283 281 279 278 277 275 275 275 276 278 278 277 276 277 282 283 283 279 275 275 274 273 272 272 273 274 274 275 276 276 277 278 278 279 278 275 276 276 275 274 272 270 270 268 266 266 266 266 266 268 270 272 267 268 268 269 269 266 266 269 271 272 272 272 273 273 274
Wind_Speed
7 6 5 4 4 3 4 3 3 3 4 3 3 5 4 4 4 4 3 3 3 3 3 3 3 3 3 3 3 3 3 2 2 2 2 2 2 5 8 8 8 9 9 10 10 10 10 10 9 9 9 10 9 10 10 9 11 12 11 10 11 13 13 13 13 13 12 12 12 11 11 11 12 13 14 12 11 13 14 14 13 13 13 13 13
7 5 6 6 4 4 4 4 4 4 4 4 3 3 5 4 4 3 4 3 3 3 3 3 3 3 2 3 3 3 2 2 2 2 2 2 2 3 8 8 9 9 10 10 11 11 12 11 10 9 9 9 10 10 10 9 11 11 9 10 12 12 12 13 13 13 13 12 12 12 12 13 13 14 14 15 15 14 15 15 15 15 15 15 15
7 7 6 6 5 5 5 4 4 4 3 4 3 4 4 4 4 4 3 3 2 2 2 3 3 3 2 3 3 2 3 2 3 2 3 3 2 3 4 8 9 9 10 11 12 12 13 13 12 11 11 9 9 10 10 10 10 9 9 9 11 11 12 12 12 12 12 13 13 12 12 13 14 14 14 14 14 14 14 15 15 15 15 16 16
8 8 7 7 6 6 5 5 4 3 3 4 4 3 4 4 4 3 3 2 2 2 1 2 2 2 2 3 2 3 3 2 3 3 3 3 3 2 3 4 9 11 12 12 13 14 14 15 14 14 12 12 11 10 11 10 9 9 9 9 9 9 11 12 12 12 12 13 13 13 12 13 13 13 13 13 13 13 13 14 15 15 15 15 16
8 9 8 7 7 7 6 5 4 4 4 5 5 4 4 5 4 3 3 2 2 2 2 1 2 2 2 2 2 3 2 2 3 3 3 3 3 3 3 4 4 9 13 14 14 15 15 15 15 15 14 12 12 11 10 10 11 10 9 9 9 10 10 10 11 12 12 12 13 13 13 13 13 13 13 13 13 13 13 14 14 14 15 16 16
8 8 7 7 7 6 7 5 5 5 4 5 5 4 5 4 4 3 3 2 3 3 3 3 2 2 2 2 2 3 2 3 3 3 3 3 3 3 3 3 4 5 6 12 15 15 15 15 15 15 15 13 12 11 10 9 9 10 10 8 8 9 9 9 10 11 12 12 12 12 12 13 13 13 13 12 12 12 13 13 14 14 15 15 15
8 8 8 7 7 7 7 5 5 5 5 4 5 4 4 5 4 4 2 2 2 2 2 3 3 3 3 2 3 3 2 4 3 3 4 3 3 4 4 4 4 4 5 5 9 15 15 15 15 15 15 14 13 13 12 12 10 11 11 10 9 9 9 11 12 12 12 12 12 12 12 13 13 13 13 13 13 13 13 13 14 14 14 14 14
10 9 9 8 8 8 6 6 7 5 5 5 5 6 5 4 3 3 5 3 3 2 1 3 3 4 3 3 3 3 4 3 4 4 3 3 4 4 4 4 4 5 5 5 5 9 15 14 15 15 15 14 14 14 13 13 12 12 11 11 11 11 12 12 12 13 13 13 13 14 14 14 14 13 13 13 13 14 14 14 14 14 14 14 14
10 10 9 9 8 7 6 7 7 6 6 5 5 4 5 5 4 3 1 3 3 4 2 2 4 4 3 4 3 4 4 4 4 4 3 4 4 4 5 5 5 5 4 4 4 4 10 14 14 15 15 14 14 14 14 14 13 12 11 11 12 11 12 12 13 13 13 14 13 13 14 13 13 13 13 13 13 14 14 14 14 14 14 14 15
10 10 8 8 7 8 8 8 7 7 6 6 5 5 4 5 5 2 3 2 3 5 4 3 4 4 4 4 4 4 4 4 4 3 4 4 4 5 4 4 4 5 5 4 4 5 4 8 11 12 14 14 14 14 14 14 14 12 11 11 12 11 12 13 13 13 13 13 14 14 14 14 14 14 14 14 14 14 14 14 14 14 15 15 15
10 10 9 9 8 8 8 9 8 7 7 7 6 6 5 4 5 4 2 2 1 2 4 5 5 4 4 4 4 5 4 4 3 4 4 3 4 4 3 4 4 5 5 5 5 5 5 4 5 5 7 14 14 14 14 14 14 12 11 11 11 11 12 14 14 14 14 15 14 14 14 14 14 14 15 15 15 15 14 15 14 14 14 14 14
11 10 9 9 9 8 9 9 8 8 8 8 7 7 9 8 6 6 5 3 1 2 4 7 7 7 6 5 4 4 5 3 4 4 3 3 3 3 4 3 5 5 6 5 5 6 6 5 5 5 5 9 13 13 14 13 13 13 12 11 12 12 13 14 14 14 14 14 14 14 14 13 14 14 14 15 15 15 15 15 15 15 15 15 15
10 10 10 9 8 8 8 8 8 8 8 9 8 8 7 6 6 4 6 5 3 3 2 3 8 6 5 5 4 3 3 3 4 3 3 3 3 4 3 4 5 5 5 5 6 6 6 6 5 5 5 4 6 10 12 12 13 14 15 14 13 13 13 13 14 14 13 13 13 13 14 14 14 14 14 15 15 15 15 15 16 15 15 15 16
10 10 8 9 9 9 9 9 9 8 7 6 7 7 8 7 7 5 1 4 4 4 4 4 2 5 7 4 2 1 2 3 3 3 3 3 3 4 4 5 5 4 4 5 6 6 6 5 5 5 5 5 5 5 6 7 10 16 16 16 15 14 13 13 13 14 14 13 12 13 13 13 14 14 14 14 14 14 15 15 15 15 15 16 16
10 10 9 9 9 9 9 9 9 8 9 9 9 9 8 9 9 8 6 1 1 1 3 3 3 2 3 5 3 3 2 1 1 1 1 3 2 3 4 5 5 4 4 5 5 5 5 5 5 5 5 5 5 5 5 6 9 13 17 18 17 16 15 13 13 14 14 14 13 13 13 13 13 13 14 14 14 15 15 15 15 15 15 15 15
10 10 8 9 11 11 10 9 10 9 9 10 10 10 9 8 8 6 5 6 3 4 1 3 2 6 4 1 2 1 2 6 3 1 1 2 3 3 3 3 4 3 3 6 5 5 4 4 5 5 5 5 4 5 5 6 7 9 12 17 17 16 15 15 14 15 14 14 14 13 13 14 14 15 15 15 15 15 15 15 16 16 16 16 17
11 12 11 12 11 10 10 10 10 10 9 9 10 11 11 9 9 7 10 8 7 2 3 2 4 3 3 6 2 2 3 2 3 1 0 2 2 2 3 3 4 3 3 4 4 4 4 5 5 5 5 5 5 5 5 5 6 8 10 14 16 16 16 15 15 15 14 14 14 13 13 14 15 15 16 16 16 16 16 16 16 16 16 16 17
10 11 10 10 10 10 10 10 10 9 9 9 8 8 9 10 11 9 10 5 6 6 5 2 1 1 1 2 0 2 4 2 2 3 1 0 1 2 2 3 2 2 2 4 5 4 4 4 4 5 4 4 4 5 5 6 7 7 8 10 16 15 15 15 15 14 14 14 13 13 13 14 15 15 16 16 16 16 16 16 16 16 16 16 17
10 10 10 9 9 9 10 9 9 9 8 8 9 10 10 10 8 8 8 5 5 8 9 6 3 1 1 1 3 1 1 7 4 3 3 2 2 2 2 2 2 1 3 3 3 4 3 3 4 4 4 4 4 5 5 6 8 9 13 14 15 14 13 13 13 13 13 13 13 13 13 14 14 15 16 16 16 16 16 16 16 16 16 17 17
10 10 10 9 9 9 8 8 9 8 8 9 9 9 7 6 8 7 5 5 7 7 9 6 10 5 2 3 3 3 3 5 3 4 3 4 4 2 0 2 1 1 3 3 3 4 3 3 4 4 4 4 4 5 5 6 7 7 8 14 14 14 13 12 12 12 12 14 14 14 15 15 16 16 16 16 16 16 16 16 16 16 16 17 17
8 9 9 10 9 10 10 9 9 9 9 8 8 9 11 11 10 9 9 7 7 4 6 9 6 7 7 2 3 4 4 4 2 3 2 4 2 4 4 1 1 2 2 2 2 3 2 2 3 3 4 5 5 5 5 5 5 6 8 13 13 12 12 11 11 11 11 12 12 13 14 15 16 17 17 17 17 17 17 17 17 17 17 17 16
8 9 10 10 10 10 10 11 11 10 10 10 9 10 10 10 11 11 10 9 6 6 8 7 6 5 8 8 5 3 3 2 1 2 3 2 2 5 4 6 4 2 1 2 3 3 2 2 2 3 4 5 4 5 5 5 5 4 7 11 10 10 10 10 10 10 10 10 11 12 13 14 15 16 16 16 17 17 17 18 18 18 18 18 18
7 8 9 10 10 10 9 10 9 9 9 10 11 11 11 11 10 10 10 10 8 7 5 5 5 7 6 8 11 11 10 7 7 5 4 4 2 1 2 2 1 3 0 0 3 3 2 1 1 3 4 5 4 4 4 4 4 5 7 9 9 9 10 10 10 9 9 10 10 11 12 12 13 14 15 15 15 16 16 17 17 17 17 17 18
6 7 9 9 9 9 10 9 10 10 11 10 9 10 9 8 9 9 9 8 6 7 6 8 8 6 7 6 6 7 4 6 7 7 8 5 5 3 4 4 1 0 1 1 2 2 1 0 1 3 4 4 4 4 4 3 3 6 4 8 9 9 10 11 10 9 10 10 10 11 12 13 13 14 14 15 15 16 16 16 16 16 17 17 17
9 9 9 11 9 10 10 11 11 11 10 10 10 10 9 9 9 10 9 10 9 9 8 10 10 10 9 6 4 5 4 1 5 6 3 3 4 4 2 1 2 3 0 1 0 1 1 1 2 3 4 4 4 3 3 3 2 5 5 4 8 9 10 10 9 9 10 10 11 11 12 13 13 13 14 14 15 15 16 16 16 16 16 17 17
12 13 12 11 11 12 11 11 10 10 11 11 10 10 10 10 10 10 11 9 8 10 8 8 8 6 5 7 6 6 3 3 5 6 7 7 4 5 5 2 2 2 1 1 1 2 2 1 1 4 4 4 4 3 2 2 2 3 5 3 4 7 9 9 9 10 11 11 12 12 13 13 13 14 14 15 15 15 15 16 16 16 17 17 18
10 9 9 12 12 9 10 9 9 9 9 10 9 9 9 8 9 9 8 8 9 8 8 9 9 9 9 8 6 5 4 5 5 6 6 7 7 7 7 6 2 2 2 1 2 5 2 2 2 4 4 4 3 3 2 2 1 3 4 3 3 6 9 10 10 11 11 11 12 12 13 13 14 14 14 15 16 16 16 16 16 17 17 17 17
6 7 9 9 10 10 10 10 10 9 8 8 9 9 10 10 9 9 11 7 10 11 9 9 9 10 9 7 6 6 5 6 5 5 5 4 4 5 6 6 5 3 3 3 4 5 5 5 3 4 4 3 3 2 2 1 1 2 2 2 3 4 8 9 11 11 11 11 12 12 12 12 13 14 14 14 14 15 15 16 16 16 16 17 17
7 8 7 8 8 9 9 9 9 9 10 10 10 9 10 10 9 11 11 10 10 11 9 10 9 9 7 10 8 6 6 6 5 5 6 5 5 5 5 7 6 4 4 5 7 6 6 8 6 7 4 3 2 2 2 1 2 3 2 3 4 4 7 10 11 11 12 12 13 13 13 13 13 13 13 13 14 14 15 15 15 16 16 16 16
9 8 8 10 9 11 9 10 9 10 11 10 11 11 11 10 10 10 9 10 10 8 9 9 9 8 8 8 7 7 6 7 7 7 7 6 6 6 6 3 5 8 6 6 5 5 4 6 3 4 5 3 1 1 1 1 3 4 3 4 5 5 9 11 11 12 12 13 13 13 12 11 11 11 12 13 14 14 15 15 16 16 16 16 17
7 7 8 9 9 9 10 9 9 11 10 10 10 10 11 10 10 10 9 10 10 10 9 9 8 9 10 11 8 7 7 8 7 6 6 6 6 5 4 4 4 4 5 4 3 3 2 7 4 1 6 5 2 1 2 1 2 5 4 4 5 7 9 7 9 10 11 11 11 11 11 11 11 12 13 13 14 14 15 16 16 16 17 17 18
8 8 8 9 9 10 10 10 10 10 11 10 10 10 10 10 10 10 10 11 11 11 10 9 7 9 11 11 10 8 9 7 7 7 7 6 6 6 6 5 4 4 4 5 5 5 3 4 5 4 4 3 3 4 3 2 2 3 3 4 5 7 5 4 6 8 10 11 11 12 12 12 13 14 14 14 15 16 16 17 18 18 18 19 20
8 9 9 9 9 10 10 10 11 11 12 11 10 10 11 11 10 10 10 12 12 10 10 11 9 10 10 11 11 9 9 9 8 8 7 8 7 6 6 6 5 5 6 7 7 7 3 2 3 4 3 2 3 4 2 2 3 3 4 5 4 3 4 4 5 8 12 13 14 14 13 14 14 15 15 15 16 16 17 17 18 18 19 19 20
10 11 10 10 9 10 10 11 11 11 11 11 11 11 12 12 11 9 10 13 13 12 11 12 12 10 11 12 11 10 11 10 10 9 9 9 9 8 8 8 7 7 5 6 5 6 7 6 4 3 4 4 4 5 1 4 4 4 4 4 3 3 4 5 6 6 11 12 13 12 12 12 13 13 14 15 15 16 17 18 19 19 19 19 20
8 10 12 12 11 11 11 10 9 10 12 12 11 11 12 13 13 11 11 13 14 13 14 14 13 12 12 12 12 11 9 10 10 9 9 9 8 9 9 8 8 7 7 6 5 5 7 5 3 4 4 4 4 4 3 4 5 5 6 4 4 3 3 4 5 4 8 11 12 12 13 13 14 14 14 15 16 17 19 19 19 19 19 20 20
8 8 11 12 13 12 11 11 12 10 10 11 12 12 13 13 12 12 12 13 12 13 14 13 14 14 14 13 12 13 13 12 12 10 10 9 9 9 10 9 8 8 7 7 5 4 4 6 3 2 1 1 2 1 2 4 4 5 4 5 4 3 4 4 5 5 7 12 13 13 14 14 15 15 15 16 17 19 19 19 19 19 19 19 20
11 10 11 11 12 13 14 13 12 12 13 12 11 12 13 12 12 11 11 12 12 12 12 13 13 14 14 14 13 14 14 13 11 11 10 12 10 9 9 8 9 8 6 6 6 4 5 5 4 2 1 3 3 3 3 4 4 4 3 5 5 6 6 6 5 5 9 12 12 13 12 12 13 13 14 15 17 18 19 19 19 19 19 20 20
11 12 13 12 13 15 15 15 14 13 11 12 13 12 12 13 13 12 11 12 13 12 12 12 14 14 15 15 14 15 16 16 14 12 12 14 10 10 10 9 9 8 8 7 6 6 4 4 4 3 1 2 3 3 3 4 5 5 5 5 4 4 6 7 7 5 4 5 5 6 8 9 10 12 13 15 17 18 18 18 18 18 18 19 19
12 12 12 13 13 13 15 14 15 15 14 13 12 13 13 12 12 12 17 14 13 13 12 12 13 14 13 13 14 16 16 15 15 16 14 14 11 12 10 10 9 10 9 8 7 7 6 5 3 3 2 2 3 4 2 2 4 4 5 6 6 4 3 4 7 6 5 5 8 11 9 8 10 10 12 15 16 16 17 17 17 18 18 19 19
12 12 13 14 13 12 14 14 15 13 14 12 12 13 12 13 13 16 16 16 13 12 11 12 11 13 13 13 12 15 16 15 14 14 15 15 11 12 10 10 11 11 9 9 8 7 7 6 5 4 3 3 3 4 4 3 3 3 3 3 5 6 4 4 6 7 5 5 5 5 7 9 9 11 13 12 12 13 14 14 15 17 18 18 18
9 11 12 12 13 13 13 13 13 13 14 15 15 14 12 13 14 17 17 16 13 13 11 11 10 10 10 11 11 13 15 16 18 18 18 16 14 12 10 11 11 10 9 8 8 8 6 6 5 4 4 5 5 4 4 5 5 4 2 4 5 5 5 6 8 7 6 5 4 6 7 7 8 7 6 6 6 8 9 11 12 14 15 18 21
10 10 10 11 13 15 14 13 13 13 14 13 16 20 16 16 18 15 15 15 14 11 11 11 12 12 13 11 10 16 18 19 20 22 23 23 20 14 15 14 12 11 10 10 9 9 8 8 7 8 7 6 7 7 7 6 5 4 5 6 6 5 5 6 7 7 6 6 6 7 8 7 6 6 5 5 5 5 6 6 7 11 16 20 20
10 9 10 12 13 12 13 14 15 14 14 14 19 20 24 23 17 16 15 15 15 12 12 11 11 13 11 11 9 14 16 17 16 23 23 24 22 21 22 22 19 18 14 11 10 10 10 8 8 8 8 8 9 8 8 7 6 6 6 6 6 6 5 5 5 4 6 2 5 7 7 5 3 4 5 5 5 5 6 7 13 17 19 19 20
8 8 11 12 12 12 12 14 15 15 15 15 19 22 25 26 21 15 13 13 14 12 10 10 8 8 10 11 9 9 11 14 14 16 19 22 22 22 23 22 22 21 21 18 14 11 10 10 9 10 9 9 9 10 9 9 7 7 8 7 7 7 6 6 7 6 4 1 7 7 6 3 3 3 5 5 5 5 6 10 15 17 17 18 20
7 8 11 11 12 12 13 15 15 15 14 14 20 23 24 25 26 19 13 13 13 14 11 11 10 9 8 9 9 9 9 18 14 14 15 17 20 23 22 22 21 21 18 19 18 14 13 11 11 10 11 10 11 11 11 9 8 8 8 8 8 7 6 7 8 8 7 5 6 6 5 4 2 4 6 6 5 5 6 9 12 15 17 19 19
8 9 9 11 11 12 13 14 14 14 16 14 21 23 24 25 26 22 15 15 14 14 12 12 12 12 12 11 11 10 11 14 12 14 14 15 15 15 16 14 13 17 19 20 18 17 15 10 11 11 11 11 10 10 10 10 9 9 8 8 7 6 7 8 7 7 7 5 5 5 4 2 3 6 7 6 4 6 6 9 14 16 17 18 19
9 10 10 10 11 11 12 12 12 13 14 15 19 23 24 26 27 22 15 14 13 13 11 11 12 13 15 13 12 12 13 14 12 16 15 15 15 14 14 13 12 13 14 14 14 13 12 9 10 9 10 11 10 8 8 8 9 8 8 7 4 3 4 4 6 5 5 4 3 3 3 3 6 6 7 7 6 6 6 9 12 15 16 16 17
8 9 9 8 10 11 11 12 13 14 12 14 20 22 24 25 27 17 15 16 15 14 14 12 12 11 11 13 13 12 13 12 20 27 19 13 15 16 16 12 11 11 11 13 15 14 12 11 10 10 11 10 9 8 8 8 7 7 4 3 2 2 0 2 4 3 3 3 3 3 3 4 5 7 9 6 7 8 7 7 9 12 14 15 17
9 9 10 10 9 10 11 11 13 13 12 13 19 22 24 26 21 15 14 13 13 13 14 14 11 11 12 14 13 11 12 12 22 28 27 21 15 16 16 15 13 11 10 12 18 20 19 18 18 18 15 15 16 16 16 16 10 5 2 1 2 2 1 2 2 1 3 4 4 2 2 6 5 8 11 6 7 10 8 5 6 7 11 18 22
10 10 9 9 9 9 11 12 12 13 13 12 18 22 25 26 21 15 13 13 14 13 12 11 9 8 12 23 16 12 12 14 27 31 30 23 17 17 15 14 14 12 11 12 12 13 20 20 20 19 17 17 17 16 14 11 10 5 3 4 3 3 2 2 2 1 4 4 2 5 3 5 7 7 10 10 8 5 3 4 3 6 14 16 17
10 10 8 9 9 9 10 11 10 13 13 11 16 21 24 25 21 14 13 11 13 13 11 8 6 8 11 18 26 20 14 18 30 31 32 23 15 16 16 15 13 11 13 12 12 12 12 11 12 13 13 14 6 6 6 6 4 3 3 4 4 4 3 2 1 1 1 0 2 7 5 5 7 7 8 12 5 2 4 1 6 9 10 10 11
Wind_Direction
170 170 156 164 146 150 150 141 140 140 152 150 148 135 120 121 118 119 114 115 115 107 102 91 89 83 91 93 85 77 74 70 61 52 52 50 27 21 28 45 62 63 65 65 68 70 72 76 74 71 67 70 67 71 70 72 64 53 50 54 59 58 55 50 49 51 51 50 45 43 43 40 37 34 33 33 36 31 26 23 22 21 21 18 14
165 161 167 158 154 149 149 150 153 151 159 150 157 135 131 128 124 122 123 121 115 110 111 99 85 89 86 96 85 79 79 76 68 60 63 53 38 32 24 39 55 64 67 70 68 70 67 65 71 67 66 66 69 65 69 67 61 56 51 61 60 56 52 50 47 47 50 49 47 43 40 42 41 39 38 34 32 29 26 24 25 25 24 23 19
168 164 169 159 161 160 160 151 154 163 160 137 139 129 123 125 131 128 126 123 113 114 110 105 102 96 96 95 95 100 94 92 89 84 75 62 61 46 26 33 47 54 66 70 69 70 70 68 68 68 57 56 67 64 60 61 61 60 57 64 62 54 49 48 45 44 46 48 48 44 45 43 42 37 35 33 30 27 24 22 21 21 22 22 19
167 165 168 164 164 164 155 163 160 154 152 138 131 124 118 108 97 90 91 97 110 117 112 115 115 109 116 104 109 104 102 102 93 84 77 76 74 66 61 42 44 50 54 62 70 69 67 63 62 60 59 52 62 69 66 61 58 60 59 57 54 51 48 46 46 45 45 46 46 44 45 44 40 36 33 31 29 27 25 24 23 21 21 20 17
174 168 166 166 161 159 162 165 157 150 143 135 125 123 112 106 92 95 96 102 119 125 132 135 121 117 111 100 112 101 102 102 94 89 84 82 77 75 73 62 59 48 47 53 61 65 64 63 62 58 60 62 56 62 63 57 59 53 57 61 52 48 47 45 49 50 44 43 44 42 42 41 39 36 34 31 28 27 26 24 22 21 19 18 16
168 168 164 162 164 168 161 158 156 148 139 143 134 128 114 110 118 123 142 166 171 163 162 147 117 118 101 105 97 97 104 91 82 81 87 84 82 77 75 71 65 61 51 48 53 57 59 60 61 62 60 62 66 60 56 53 59 56 51 55 53 47 45 45 49 46 46 43 42 42 39 40 39 37 35 32 31 31 29 24 20 19 17 15 13
172 163 166 164 164 166 170 160 149 149 143 148 133 118 119 130 142 147 148 176 184 164 178 128 130 105 94 107 100 102 88 87 82 79 74 78 77 75 70 71 72 70 61 62 51 50 53 55 58 59 57 56 58 55 52 51 55 55 52 55 53 53 51 48 46 44 43 44 41 40 39 39 38 36 35 32 31 29 26 24 21 18 16 14 11
170 169 165 173 171 169 163 148 154 146 141 140 134 134 138 135 148 155 157 177 177 150 149 112 103 95 92 91 95 91 91 85 80 80 69 78 74 67 62 64 59 65 63 61 60 51 51 53 54 54 54 55 56 55 52 50 52 55 54 56 54 56 50 45 44 43 43 42 40 38 38 36 34 33 31 30 29 26 23 21 19 16 14 11 9
173 174 168 170 170 162 155 155 152 149 147 146 142 138 143 144 153 179 237 173 181 135 114 109 99 92 92 92 86 97 85 84 82 85 83 78 75 66 64 56 58 56 52 59 59 60 51 52 52 50 49 54 57 60 55 50 52 55 59 60 57 57 55 49 46 44 43 41 39 37 36 35 34 31 30 29 26 22 20 18 15 13 10 8 7
176 173 171 166 165 160 152 156 153 148 144 151 145 140 140 153 153 171 186 193 180 152 129 113 103 99 91 90 95 90 91 88 89 87 91 87 74 66 61 59 56 47 49 50 53 56 58 53 51 48 45 50 57 60 60 52 52 54 61 66 63 58 58 56 50 48 45 43 40 37 34 33 30 28 27 24 21 19 16 13 10 8 5 3 2
173 172 170 167 164 161 157 158 155 150 147 150 148 151 148 154 160 151 157 234 199 135 136 122 102 85 79 74 80 80 83 85 90 93 88 83 85 83 73 61 61 48 46 43 42 44 46 45 44 46 42 44 54 58 59 54 53 53 63 68 67 64 63 56 49 46 42 40 37 35 32 30 27 25 22 19 17 14 13 8 5 3 2 1 360
176 174 171 166 164 164 158 159 159 155 155 157 164 169 165 159 166 156 154 136 89 118 141 118 88 81 79 72 58 69 70 68 77 80 88 89 98 100 82 79 68 62 53 47 42 36 37 34 39 39 39 40 43 49 52 50 55 59 62 69 70 62 55 51 45 42 40 37 35 32 29 26 25 22 21 17 14 12 8 7 4 3 2 0 359
176 173 174 164 162 153 153 163 164 166 167 173 158 153 153 153 142 154 162 157 152 155 184 152 121 86 73 74 73 30 45 44 69 79 79 93 104 97 99 89 74 66 58 58 50 41 37 33 33 34 35 30 35 36 42 38 41 60 58 54 55 54 52 47 44 40 36 34 31 29 26 23 21 19 16 14 11 8 4 2 359 358 357 355 353
174 175 167 165 160 163 166 167 167 171 163 139 145 147 149 154 155 153 240 184 150 171 180 162 143 153 147 137 75 77 42 13 46 58 73 82 88 88 84 85 81 75 66 62 54 46 39 36 35 36 35 35 33 31 27 32 34 39 46 47 46 48 48 46 45 37 33 31 28 26 21 19 18 16 15 14 11 8 5 0 358 356 353 351 350
172 174 169 169 165 161 171 166 172 160 154 160 159 163 165 164 176 171 153 105 111 156 200 266 131 103 102 121 156 167 198 211 359 26 48 61 63 69 61 66 65 67 63 61 51 44 40 37 38 39 38 36 39 36 42 38 32 30 36 38 34 30 32 35 32 29 27 22 26 24 22 21 19 17 16 13 10 8 3 360 358 355 352 349 347
169 170 169 174 172 174 166 171 174 175 165 158 167 168 165 170 178 193 170 143 185 172 199 188 208 160 160 289 136 212 149 219 169 143 349 22 44 62 56 58 53 49 58 54 43 40 41 37 41 42 40 40 41 45 48 47 30 32 30 33 25 24 23 24 26 24 22 22 20 20 20 19 16 15 13 11 7 4 358 357 354 352 349 347 344
172 179 179 178 177 175 172 172 170 175 169 165 170 178 175 173 172 173 197 171 160 155 166 162 218 302 157 139 115 220 233 99 120 145 189 198 58 33 60 48 44 37 56 59 47 43 34 36 38 44 41 44 47 49 54 43 43 41 38 28 23 21 19 16 16 19 21 19 19 16 19 15 12 8 8 5 4 1 358 356 354 351 348 346 343
181 181 181 176 178 179 173 168 174 172 177 171 164 155 172 177 187 185 189 237 156 146 147 163 62 158 317 345 299 162 155 163 179 194 121 301 20 84 39 32 33 34 65 55 39 41 36 36 36 42 40 48 54 59 58 49 40 41 34 23 20 16 13 12 11 15 18 18 18 16 13 9 7 6 4 2 2 360 356 357 355 352 348 345 342
180 181 181 179 175 175 177 178 173 172 166 160 168 178 177 184 166 186 198 163 156 166 172 160 136 115 45 88 87 49 121 138 191 97 191 181 170 144 87 4 3 32 78 54 41 35 38 38 43 47 52 56 65 68 63 54 47 45 35 23 13 9 7 8 9 10 11 11 12 10 7 4 3 2 3 1 360 358 355 354 352 350 348 346 343
178 181 180 175 174 175 175 172 173 177 170 177 173 173 168 166 182 186 165 191 195 185 166 175 170 160 139 125 79 73 45 43 59 164 142 168 176 105 42 359 24 64 77 49 34 24 17 35 40 53 72 73 78 72 63 54 46 36 28 15 7 3 2 5 6 9 6 4 2 359 358 358 359 360 0 360 358 355 353 351 348 346 344 342 340
181 177 179 178 176 175 171 172 173 174 180 177 178 172 175 170 173 180 192 191 201 215 166 185 184 161 147 97 89 65 55 46 71 52 137 160 153 179 156 125 71 85 63 22 19 3 9 22 42 59 90 92 84 72 64 56 48 40 23 12 4 360 359 0 0 4 0 359 357 355 356 358 359 359 360 358 355 352 350 348 345 343 341 339 337
184 181 179 181 178 174 177 177 176 174 181 183 168 171 175 183 186 186 183 186 185 197 197 184 183 161 174 144 139 124 73 79 56 104 45 12 176 185 168 167 170 168 318 349 359 355 356 22 58 88 107 107 91 81 70 63 53 37 20 10 0 356 354 353 353 352 352 352 356 356 357 359 358 358 357 355 353 350 348 346 342 341 339 336 334
181 186 184 177 181 178 178 181 178 176 180 176 183 179 182 183 182 183 184 184 181 185 188 175 167 166 169 175 163 171 169 172 180 185 157 152 140 187 147 190 86 140 177 18 333 343 339 356 74 116 122 111 100 88 78 71 61 45 29 9 359 353 349 346 345 346 350 350 353 354 353 356 355 354 352 352 350 348 346 343 342 339 337 335 334
186 189 192 184 181 181 179 178 183 181 188 187 182 185 177 175 176 183 185 185 171 178 181 164 176 172 180 187 182 169 152 157 170 161 170 176 173 152 144 131 134 302 19 284 301 306 326 10 88 136 131 120 107 94 90 75 56 45 33 14 355 349 343 341 342 347 348 348 348 350 351 352 353 351 350 349 349 347 345 343 340 338 336 335 333
189 188 193 186 183 179 184 187 186 190 185 181 185 177 174 179 179 183 184 182 182 180 176 182 174 174 182 186 167 180 172 123 145 158 134 117 149 125 100 72 111 126 42 314 190 350 309 266 128 153 139 126 118 113 91 58 44 35 31 12 357 345 340 337 338 342 344 343 345 348 350 351 351 350 350 349 348 346 345 341 339 338 336 334 333
181 194 183 180 189 196 191 192 191 184 184 180 174 176 175 180 179 182 187 188 177 185 183 172 183 189 155 164 186 181 161 164 157 151 154 144 160 164 134 99 73 109 110 210 249 179 197 212 144 160 141 133 129 115 94 66 39 41 24 357 343 338 333 329 334 341 342 341 343 344 348 350 350 349 350 348 347 347 345 341 339 337 336 334 332
197 193 176 187 193 188 193 193 191 187 184 179 178 172 174 175 182 184 183 180 180 178 182 171 177 177 178 184 166 172 168 171 166 169 164 170 151 156 149 145 150 149 162 193 201 250 163 164 163 172 158 143 138 133 110 55 10 8 356 342 330 329 332 330 333 340 339 338 338 341 345 348 350 350 350 349 347 346 342 340 338 335 333 332 331
205 187 196 186 192 191 188 194 186 184 185 183 175 176 175 178 180 181 185 172 178 182 184 178 183 177 174 165 162 180 164 169 173 161 170 150 149 151 160 155 163 164 150 175 208 235 186 180 190 199 171 156 144 128 130 108 307 349 350 335 324 318 324 324 333 334 333 333 336 340 345 347 349 350 348 346 343 340 336 335 335 332 330 330 331
202 198 187 191 193 195 191 188 186 184 180 183 180 178 177 186 184 181 185 177 180 186 177 182 179 170 170 174 178 163 169 162 161 165 161 154 164 168 176 175 175 173 167 184 199 194 183 199 183 188 178 174 163 165 175 202 351 352 351 332 317 315 313 329 333 331 331 334 337 341 346 348 348 346 342 339 337 335 333 333 333 331 330 329 328
201 194 191 187 191 196 191 189 188 185 189 182 182 182 181 191 189 191 185 168 179 182 184 177 171 170 166 168 172 170 167 171 172 166 169 167 163 171 172 167 175 188 177 182 173 188 161 181 215 167 174 201 182 241 212 297 342 342 346 325 319 316 322 329 328 330 334 337 337 339 343 344 341 339 337 335 334 332 332 332 332 331 329 329 329
201 193 188 188 193 194 193 192 187 190 187 189 182 183 183 187 188 189 181 179 180 180 180 177 172 167 170 173 175 170 167 172 162 167 172 169 170 163 159 154 186 204 162 172 143 170 161 176 185 134 169 186 194 240 232 250 325 338 327 309 299 302 308 304 311 322 325 326 328 331 338 342 340 338 337 335 331 330 329 328 328 328 328 329 329
204 198 200 198 192 193 195 192 189 187 189 187 184 185 183 195 185 187 182 178 183 180 175 183 170 178 169 174 176 171 170 165 168 171 173 174 161 165 162 166 168 171 168 173 181 148 184 169 160 155 147 175 211 217 209 239 249 279 287 281 279 283 278 278 269 306 319 326 333 336 339 340 340 338 334 331 328 328 329 328 329 329 328 330 331
189 195 198 201 199 198 195 197 194 189 187 184 185 183 190 193 191 188 174 183 183 184 171 179 182 179 179 172 173 174 165 169 172 169 172 171 170 169 163 165 170 177 178 177 172 137 138 154 157 170 169 185 213 187 232 237 247 244 250 254 264 280 291 305 318 323 329 333 336 336 337 338 338 335 333 332 330 328 326 325 326 327 326 329 329
194 202 200 196 196 203 203 203 197 194 192 190 183 185 190 193 190 187 185 184 187 181 177 181 180 183 175 173 175 169 175 174 169 175 173 173 176 170 174 172 176 178 187 174 183 160 158 160 178 180 194 191 213 182 273 294 270 271 277 287 295 325 332 330 327 326 318 322 325 325 329 332 331 330 331 331 329 327 325 326 326 325 324 324 324
208 207 203 199 197 198 202 207 207 200 193 190 190 192 196 194 190 190 186 187 187 179 183 187 179 173 175 180 175 167 168 175 179 180 174 176 175 175 169 171 175 179 182 194 165 178 160 165 162 193 185 181 189 188 289 292 301 304 308 322 338 331 312 307 302 294 294 312 318 325 330 331 331 331 332 333 331 327 323 321 321 320 322 324 325
213 213 212 208 203 201 203 199 198 202 205 202 192 197 199 196 198 195 188 191 192 190 185 177 176 178 179 173 177 171 172 174 177 176 180 176 177 177 171 175 174 173 177 177 199 166 160 162 180 200 217 280 197 238 288 293 298 306 307 310 306 303 293 272 272 285 299 317 324 327 329 328 327 329 329 329 325 318 315 317 320 323 325 326 326
216 210 214 210 210 207 209 204 198 199 201 202 206 199 192 197 203 198 194 193 196 194 189 186 180 178 177 183 167 168 171 173 172 179 173 177 179 173 173 171 173 167 161 175 174 172 171 176 161 169 277 289 282 300 301 309 297 295 306 315 322 322 317 306 295 291 302 314 314 313 311 310 311 314 317 319 312 309 313 318 322 324 326 326 325
217 214 212 208 210 213 213 210 206 204 197 199 204 207 207 197 192 196 197 198 202 198 192 192 187 186 183 181 173 170 173 176 178 172 171 175 169 174 171 171 166 158 161 162 165 169 176 180 167 182 200 277 303 289 314 304 310 321 328 330 323 319 323 324 318 307 304 299 305 298 283 284 292 300 306 306 305 308 313 316 320 323 324 323 320
219 217 214 215 215 215 216 214 214 209 205 204 205 204 202 206 209 200 199 198 200 202 203 196 190 191 187 179 171 176 178 179 171 173 169 169 173 176 173 163 158 157 159 162 165 167 172 170 175 182 195 236 253 283 311 289 280 296 315 326 330 327 303 298 301 303 287 272 262 258 264 278 287 291 295 297 298 304 309 313 317 319 320 318 316
223 220 216 216 217 215 218 215 216 211 210 209 206 204 201 199 200 212 210 204 198 201 199 195 190 191 191 187 181 181 181 179 174 170 167 169 165 167 170 159 162 160 159 156 159 166 168 173 177 176 185 201 229 246 263 273 270 267 242 261 296 307 306 279 269 274 275 248 252 239 244 262 275 280 282 282 285 295 303 308 311 313 314 315 315
231 228 224 219 220 220 221 219 217 212 214 215 212 207 199 196 202 207 209 213 210 205 194 190 189 188 190 191 187 186 185 185 176 173 177 169 159 161 165 164 162 160 154 153 155 157 161 162 170 175 183 200 211 213 220 215 216 220 232 231 252 259 271 278 263 249 242 242 247 274 271 271 281 276 280 285 289 299 299 302 305 309 312 315 318
241 233 230 226 223 223 221 219 218 217 220 219 216 210 203 204 203 206 204 209 213 215 208 196 193 191 191 190 188 183 184 180 174 174 176 177 180 170 160 164 162 158 159 154 159 162 160 169 178 172 180 199 200 201 202 208 203 220 231 232 239 245 251 257 261 238 226 220 269 274 265 263 268 274 273 283 289 296 302 307 308 311 312 313 313
251 242 230 230 228 226 224 221 218 220 222 222 215 208 208 205 203 205 205 207 203 209 213 213 202 188 186 183 170 178 181 178 174 175 176 176 173 174 172 170 168 162 155 160 163 162 165 170 169 174 183 189 196 197 200 200 205 213 220 224 233 236 232 241 255 253 204 197 283 271 266 253 258 282 283 280 293 299 301 298 303 308 310 308 307
257 246 239 236 234 229 226 226 224 224 225 220 211 210 208 207 203 205 208 208 205 201 200 205 213 199 185 177 174 173 177 175 167 171 175 174 171 170 173 176 176 176 171 161 157 164 171 164 174 184 176 190 190 191 195 194 203 209 216 221 227 223 226 235 245 246 224 349 292 279 273 270 275 279 286 278 282 283 280 293 302 303 302 302 304
274 257 249 243 239 234 229 229 230 228 231 214 212 210 208 207 205 201 210 208 206 209 192 192 195 192 186 180 175 176 172 167 162 169 165 172 172 170 172 175 177 179 182 180 173 163 161 165 177 181 187 179 186 194 190 193 198 209 214 223 223 219 225 237 249 263 272 293 286 279 290 290 293 304 292 281 269 281 285 288 296 301 302 300 300
280 267 256 249 245 239 233 233 234 232 230 219 212 210 207 205 205 199 209 206 209 209 203 190 182 183 186 181 175 174 172 173 171 163 160 164 165 167 172 173 177 184 186 185 180 171 168 169 175 182 185 184 191 187 190 195 203 209 217 223 223 218 225 247 268 274 279 282 279 300 292 282 321 311 297 288 281 289 296 290 296 302 301 300 303
287 273 262 256 248 243 242 238 240 238 234 220 213 211 208 204 204 199 205 209 212 213 207 197 194 182 178 178 178 174 171 175 170 166 161 164 163 166 169 171 173 181 184 186 182 178 177 176 179 182 187 189 191 194 203 208 210 218 227 227 201 204 245 275 277 264 280 267 283 322 284 305 309 303 287 297 304 298 294 291 288 299 303 304 307
277 273 270 259 254 247 241 239 239 241 238 216 215 213 209 207 202 202 206 208 212 211 208 203 192 187 181 177 175 170 172 170 175 174 168 154 161 165 169 166 168 176 187 191 184 182 179 179 183 188 189 183 192 206 208 209 217 217 175 144 131 118 158 282 280 289 285 299 320 315 293 299 312 303 295 302 308 305 301 293 290 297 307 312 315
280 270 265 256 253 250 245 242 240 244 243 224 218 215 212 208 202 208 208 210 213 212 210 204 186 178 175 179 177 172 171 172 177 176 172 165 163 166 168 169 171 173 183 187 193 194 193 189 191 191 190 197 200 205 211 218 214 163 136 191 214 161 219 255 272 265 298 328 309 343 317 306 316 318 307 317 313 299 291 283 298 302 307 315 312
281 272 266 265 256 250 246 243 239 243 242 228 221 218 214 209 203 207 207 208 210 209 211 184 184 176 177 181 177 169 174 174 179 180 177 170 168 170 167 165 169 176 180 181 185 195 196 195 199 205 203 199 211 217 216 208 201 184 156 218 190 166 229 207 218 291 309 313 357 33 2 305 323 327 318 309 290 243 254 288 294 312 309 305 307
270 274 270 266 264 252 247 244 237 239 244 235 224 224 217 212 208 209 208 207 209 208 202 179 168 163 178 186 186 183 175 175 181 184 182 175 169 171 171 168 173 176 182 162 171 178 186 192 200 202 208 208 179 129 147 163 155 162 192 206 198 192 212 202 187 249 311 7 112 27 355 314 337 332 360 335 322 247 208 21 323 311 306 307 303